Location: Albany
(35.0170°S, 117.8920°E)
Time: 20:39:57
(UTC+08:00)

A-11 Canister half - Pass Details

Date: 22 January 2021
Orbit: 1525 x 1684 km, 47.3° (Epoch: 03 March)

Event Time Altitude Azimuth Distance (km) Brightness Sun altitude
Rises 08:39:22 0° 237° (WSW) 4,864 11.2 39.3°
Reaches altitude 10° 08:42:36 10° 234° (SW) 3,855 10.8 40.0°
Maximum altitude 08:52:20 65° 152° (SSE) 1,708 10.2 42.0°
Drops below altitude 10° 09:01:43 10° 70° (ENE) 3,721 12.0 43.9°
Sets 09:04:46 0° 67° (ENE) 4,688 12.3 44.5°
